Mount Vernon, IL

9:42 PM CDT on May 22, 2017 (GMT -0500)
Mount Vernon

Weather History for KMVN - March, 2014

Change the Weather History Date:

Wednesday, March 5, 2014

  Actual Average Record
Temperature  
Mean Temperature 29 °F -  
Max Temperature 41 °F 46 °F 68 °F (2004)
Min Temperature 17 °F 29 °F 3 °F (2015)
Degree Days  
Heating Degree Days 36    
Moisture  
Dew Point 20 °F    
Average Humidity 67    
Maximum Humidity 93    
Minimum Humidity 49    
Precipitation  
Precipitation 0.00 in - - ()
Sea Level Pressure  
Sea Level Pressure 30.23 in    
Wind  
Wind Speed 4 mph (NE)    
Max Wind Speed 13 mph    
Max Gust Speed 16 mph    
Visibility 10 miles    
Events      
Averages and records for this station are not official NWS values.
T = Trace of Precipitation, MM = Missing Value Source: NWS Daily Summary

Daily Weather History Graph

Daily Weather History Graph

Search for Another Location

Airport or City:

Trip Planner

Search our weather history database for the weather conditions in past years. The results will help you decide how hot, cold, wet, or windy it might be!

Date:

Astronomy

Mar. 05, 2014 Rise Set
Actual Time 6:21 AM CST 5:52 PM CST
Civil Twilight 5:55 AM CST 6:19 PM CST
Nautical Twilight 5:24 AM CST 6:49 PM CST
Astronomical Twilight 4:53 AM CST 7:20 PM CST
Moon 8:51 AM CST (3/5) 10:56 PM CST (3/5)
Length of Visible Light 12h 24m
Length of Day
11h 31m
Waxing Crescent, 23% of the Moon is Illuminated
Mar 5
Waxing Crescent
Mar 8
First Quarter
Mar 16
Full
Mar 23
Last Quarter
Mar 30
New

Hourly Weather History & Observations

Time (CST) Temp. Windchill Dew Point Humidity Pressure Visibility Wind Dir Wind Speed Gust Speed Precip Events Conditions
12:15 AM 24.8 °F - 14.0 °F 64% 30.17 in 10.0 mi Calm Calm - N/A   Clear
12:35 AM 24.8 °F - 15.8 °F 69% 30.17 in 10.0 mi Calm Calm - N/A   Clear
12:55 AM 24.8 °F - 15.8 °F 69% 30.17 in 10.0 mi Calm Calm - N/A   Clear
1:15 AM 19.4 °F - 14.0 °F 80% 30.17 in 10.0 mi Calm Calm - N/A   Clear
1:35 AM 19.4 °F - 15.8 °F 86% 30.17 in 10.0 mi Calm Calm - N/A   Clear
1:55 AM 19.4 °F - 15.8 °F 86% 30.17 in 10.0 mi Calm Calm - N/A   Clear
2:15 AM 19.4 °F - 15.8 °F 86% 30.17 in 10.0 mi Calm Calm - N/A   Clear
2:35 AM 19.4 °F 14.3 °F 15.8 °F 86% 30.17 in 10.0 mi North 3.5 mph - N/A   Clear
2:55 AM 17.6 °F - 12.2 °F 79% 30.17 in 10.0 mi Calm Calm - N/A   Clear
3:15 AM 17.6 °F 10.7 °F 15.8 °F 93% 30.18 in 10.0 mi North 4.6 mph - N/A   Clear
3:35 AM 19.4 °F 14.3 °F 14.0 °F 80% 30.19 in 10.0 mi North 3.5 mph - N/A   Clear
3:55 AM 17.6 °F 12.3 °F 12.2 °F 79% 30.19 in 10.0 mi North 3.5 mph - N/A   Clear
4:15 AM 19.4 °F 12.8 °F 14.0 °F 80% 30.20 in 10.0 mi North 4.6 mph - N/A   Clear
4:35 AM 19.4 °F 14.3 °F 14.0 °F 80% 30.21 in 10.0 mi North 3.5 mph - N/A   Clear
4:55 AM 19.4 °F 12.8 °F 15.8 °F 86% 30.22 in 10.0 mi North 4.6 mph - N/A   Clear
5:15 AM 17.6 °F 12.3 °F 12.2 °F 79% 30.22 in 10.0 mi NNE 3.5 mph - N/A   Clear
5:35 AM 17.6 °F 12.3 °F 15.8 °F 93% 30.23 in 10.0 mi NNE 3.5 mph - N/A   Clear
5:55 AM 17.6 °F 10.7 °F 14.0 °F 86% 30.23 in 10.0 mi NNE 4.6 mph - N/A   Clear
6:15 AM 19.4 °F 12.8 °F 15.8 °F 86% 30.23 in 10.0 mi North 4.6 mph - N/A   Scattered Clouds
6:35 AM 17.6 °F 12.3 °F 12.2 °F 79% 30.24 in 10.0 mi NNE 3.5 mph - N/A   Scattered Clouds
6:55 AM 19.4 °F - 15.8 °F 86% 30.24 in 10.0 mi Calm Calm - N/A   Clear
7:15 AM 21.2 °F 16.4 °F 17.6 °F 86% 30.24 in 10.0 mi NE 3.5 mph - N/A   Scattered Clouds
7:35 AM 24.8 °F 19.1 °F 17.6 °F 74% 30.24 in 10.0 mi East 4.6 mph - N/A   Partly Cloudy
7:55 AM 26.6 °F 21.2 °F 19.4 °F 74% 30.25 in 10.0 mi East 4.6 mph - N/A   Clear
8:15 AM 28.4 °F 22.2 °F 19.4 °F 69% 30.26 in 10.0 mi East 5.8 mph - N/A   Clear
8:35 AM 28.4 °F 20.4 °F 19.4 °F 69% 30.26 in 10.0 mi East 8.1 mph - N/A   Clear
8:55 AM 30.2 °F 21.9 °F 21.2 °F 69% 30.26 in 10.0 mi East 9.2 mph - N/A   Clear
9:15 AM 30.2 °F 23.4 °F 19.4 °F 64% 30.26 in 10.0 mi East 6.9 mph - N/A   Clear
9:35 AM 33.8 °F 25.8 °F 21.2 °F 60% 30.26 in 10.0 mi ENE 10.4 mph - N/A   Clear
9:55 AM 33.8 °F 25.3 °F 19.4 °F 56% 30.27 in 10.0 mi East 11.5 mph - N/A   Clear
10:15 AM 35.6 °F 30.7 °F 21.2 °F 56% 30.26 in 10.0 mi East 5.8 mph - N/A   Clear
10:35 AM 35.6 °F 28.6 °F 23.0 °F 60% 30.26 in 10.0 mi NE 9.2 mph - N/A   Clear
10:55 AM 35.6 °F 27.5 °F 24.8 °F 65% 30.26 in 10.0 mi NE 11.5 mph - N/A   Clear
11:15 AM 37.4 °F 30.3 °F 24.8 °F 60% 30.26 in 10.0 mi NE 10.4 mph - N/A   Clear
11:35 AM 37.4 °F 32.1 °F 24.8 °F 60% 30.26 in 10.0 mi ENE 6.9 mph - N/A   Clear
11:55 AM 39.2 °F 34.2 °F 24.8 °F 56% 30.25 in 10.0 mi ENE 6.9 mph - N/A   Clear
12:15 PM 39.2 °F 33.0 °F 24.8 °F 56% 30.24 in 10.0 mi NE 9.2 mph - N/A   Clear
12:35 PM 39.2 °F 33.6 °F 26.6 °F 61% 30.24 in 10.0 mi NE 8.1 mph - N/A   Clear
12:55 PM 39.2 °F 31.6 °F 24.8 °F 56% 30.23 in 10.0 mi NE 12.7 mph - N/A   Clear
1:15 PM 39.2 °F 33.6 °F 24.8 °F 56% 30.23 in 10.0 mi East 8.1 mph - N/A   Clear
1:35 PM 39.2 °F 33.6 °F 24.8 °F 56% 30.23 in 10.0 mi ESE 8.1 mph - N/A   Clear
1:55 PM 41.0 °F 35.8 °F 24.8 °F 53% 30.22 in 10.0 mi ESE 8.1 mph - N/A   Clear
2:15 PM 41.0 °F 36.4 °F 24.8 °F 53% 30.22 in 10.0 mi East 6.9 mph - N/A   Clear
2:35 PM 41.0 °F 36.4 °F 23.0 °F 49% 30.22 in 10.0 mi East 6.9 mph - N/A   Clear
2:55 PM 41.0 °F 35.2 °F 24.8 °F 53% 30.22 in 10.0 mi ENE 9.2 mph - N/A   Clear
3:15 PM 41.0 °F 35.2 °F 24.8 °F 53% 30.22 in 10.0 mi ENE 9.2 mph - N/A   Clear
3:35 PM 41.0 °F 37.1 °F 24.8 °F 53% 30.22 in 10.0 mi ENE 5.8 mph - N/A   Clear
3:55 PM 39.2 °F 33.6 °F 24.8 °F 56% 30.23 in 10.0 mi ENE 8.1 mph - N/A   Clear
4:15 PM 39.2 °F 33.6 °F 24.8 °F 56% 30.22 in 10.0 mi East 8.1 mph - N/A   Clear
4:35 PM 39.2 °F 35.9 °F 26.6 °F 61% 30.23 in 10.0 mi ENE 4.6 mph - N/A   Clear
4:55 PM 37.4 °F 30.8 °F 24.8 °F 60% 30.22 in 10.0 mi ENE 9.2 mph - N/A   Clear
5:15 PM 37.4 °F 32.8 °F 23.0 °F 56% 30.23 in 10.0 mi ENE 5.8 mph - N/A   Clear
5:35 PM 35.6 °F 29.2 °F 23.0 °F 60% 30.23 in 10.0 mi NE 8.1 mph - N/A   Clear
5:55 PM 35.6 °F 30.7 °F 23.0 °F 60% 30.24 in 10.0 mi NE 5.8 mph - N/A   Clear
6:15 PM 35.6 °F 30.7 °F 23.0 °F 60% 30.24 in 10.0 mi NNE 5.8 mph - N/A   Clear
6:35 PM 35.6 °F 30.7 °F 23.0 °F 60% 30.25 in 10.0 mi NNE 5.8 mph - N/A   Clear
6:55 PM 35.6 °F 31.7 °F 21.2 °F 56% 30.26 in 10.0 mi NNE 4.6 mph - N/A   Clear
7:15 PM 35.6 °F 28.6 °F 23.0 °F 60% 30.25 in 10.0 mi NNE 9.2 mph - N/A   Clear
7:35 PM 35.6 °F 29.2 °F 23.0 °F 60% 30.25 in 10.0 mi NNE 8.1 mph - N/A   Clear
7:55 PM 33.8 °F 25.8 °F 23.0 °F 65% 30.26 in 10.0 mi NNE 10.4 mph - N/A   Clear
8:15 PM 33.8 °F 26.4 °F 23.0 °F 65% 30.26 in 10.0 mi NNE 9.2 mph - N/A   Clear
8:35 PM 33.8 °F 26.4 °F 21.2 °F 60% 30.26 in 10.0 mi NE 9.2 mph 16.1 mph N/A   Clear
8:55 PM 33.8 °F 25.8 °F 23.0 °F 65% 30.27 in 10.0 mi NNE 10.4 mph - N/A   Clear
9:15 PM 33.8 °F 26.4 °F 21.2 °F 60% 30.28 in 10.0 mi NNE 9.2 mph - N/A   Clear
9:35 PM 32.0 °F 24.8 °F 21.2 °F 64% 30.28 in 10.0 mi NE 8.1 mph - N/A   Clear
9:55 PM 32.0 °F 24.2 °F 21.2 °F 64% 30.28 in 10.0 mi NE 9.2 mph - N/A   Clear
10:15 PM 32.0 °F 24.2 °F 21.2 °F 64% 30.28 in 10.0 mi NE 9.2 mph - N/A   Clear
10:35 PM 32.0 °F 24.2 °F 21.2 °F 64% 30.28 in 10.0 mi NNE 9.2 mph - N/A   Clear
10:55 PM 30.2 °F 21.9 °F 21.2 °F 69% 30.28 in 10.0 mi NE 9.2 mph - N/A   Clear
11:15 PM 30.2 °F 22.6 °F 21.2 °F 69% 30.27 in 10.0 mi NNE 8.1 mph - N/A   Clear
11:35 PM 30.2 °F 21.3 °F 21.2 °F 69% 30.27 in 10.0 mi NNE 10.4 mph - N/A   Clear
11:55 PM 30.2 °F 24.3 °F 21.2 °F 69% 30.28 in 10.0 mi NNE 5.8 mph - N/A   Clear